Location: New Frontier Mobile Home Park
(32.8448°N, 116.9675°W)
Time: 23:11:14
(UTC+00:00)

TSX-5 - Pass Details

Date: 14 July 2020
Orbit: 404 x 1328 km, 68.9° (Epoch: 05 August)

Event Time Altitude Azimuth Distance (km) Brightness Sun altitude
Rises 05:03:32 0° 336° (NNW) 2,671 8.6 -22.1°
Reaches altitude 10° 05:05:29 10° 335° (NNW) 1,878 7.5 -22.3°
Maximum altitude 05:09:40 84° 249° (WSW) 683 4.1 -22.9°
Enters shadow 05:10:27 63° 170° (S) 778 4.2 -23.0°
